Hourly Weather Alichur

Today, 2 March, Tuesday

Time Temperature Precipitation Wind Pressure Humidity
00:00 -26°C° 0 mm 3 mps 448 mmHg 68%
01:00 -27°C° 0 mm 3 mps 447 mmHg 69%
02:00 -27°C° 0 mm 3 mps 447 mmHg 70%
03:00 -26°C° 0 mm 2 mps 447 mmHg 69%
04:00 -26°C° 0 mm 2 mps 447 mmHg 69%
05:00 -26°C° 0 mm 2 mps 447 mmHg 64%
06:00 -25°C° 0 mm 2 mps 447 mmHg 65%
07:00 -24°C° 0 mm 2 mps 448 mmHg 66%
08:00 -24°C° 0 mm 2 mps 449 mmHg 67%
09:00 -20°C° 0 mm 2 mps 450 mmHg 66%
10:00 -18°C° 0 mm 2 mps 450 mmHg 66%
11:00 -16°C° 0 mm 2 mps 451 mmHg 65%
12:00 -15°C° 0 mm 2 mps 451 mmHg 64%
13:00 -14°C° 0 mm 2 mps 451 mmHg 64%
14:00 -12°C° 0 mm 2 mps 451 mmHg 63%
15:00 -13°C° 0 mm 2 mps 450 mmHg 68%
16:00 -14°C° 0 mm 2 mps 449 mmHg 72%
17:00 -12°C° 0 mm 1 mps 449 mmHg 77%
18:00 -15°C° 0 mm 2 mps 449 mmHg 80%
19:00 -16°C° 0 mm 2 mps 449 mmHg 83%
20:00 -17°C° 0 mm 2 mps 449 mmHg 86%
21:00 -17°C° 0.1 mm 2 mps 449 mmHg 88%
22:00 -17°C° 0.1 mm 2 mps 449 mmHg 89%
23:00 -17°C° 0.1 mm 2 mps 449 mmHg 91%

Tomorrow, 3 March, Wednesday

Time Temperature Precipitation Wind Pressure Humidity
00:00 -17°C° 0.1 mm 2 mps 449 mmHg 92%
01:00 -18°C° 0.1 mm 2 mps 449 mmHg 93%
02:00 -18°C° 0.1 mm 2 mps 449 mmHg 94%
03:00 -19°C° 0.1 mm 2 mps 448 mmHg 94%
04:00 -19°C° 0.1 mm 2 mps 448 mmHg 94%
05:00 -20°C° 0.1 mm 2 mps 447 mmHg 93%
06:00 -19°C° 0 mm 2 mps 448 mmHg 92%
07:00 -19°C° 0 mm 2 mps 448 mmHg 90%
08:00 -19°C° 0 mm 2 mps 448 mmHg 88%
09:00 -17°C° 0 mm 2 mps 448 mmHg 85%
10:00 -16°C° 0 mm 3 mps 449 mmHg 82%
11:00 -14°C° 0 mm 3 mps 450 mmHg 79%
12:00 -13°C° 0 mm 3 mps 449 mmHg 76%
13:00 -12°C° 0 mm 3 mps 449 mmHg 74%
14:00 -12°C° 0 mm 3 mps 449 mmHg 71%
15:00 -13°C° 0 mm 3 mps 448 mmHg 75%
16:00 -12°C° 0 mm 2 mps 448 mmHg 78%
17:00 -13°C° 0 mm 2 mps 447 mmHg 82%
18:00 -14°C° 0 mm 2 mps 447 mmHg 85%
19:00 -15°C° 0 mm 2 mps 447 mmHg 89%
20:00 -16°C° 0 mm 2 mps 448 mmHg 92%
21:00 -16°C° 0.1 mm 2 mps 448 mmHg 94%
22:00 -16°C° 0.1 mm 2 mps 448 mmHg 95%
23:00 -16°C° 0.1 mm 2 mps 449 mmHg 97%

Day after tomorrow, 4 March, Thursday

Time Temperature Precipitation Wind Pressure Humidity
00:00 -17°C° 0.1 mm 2 mps 448 mmHg 97%
01:00 -18°C° 0.1 mm 2 mps 448 mmHg 97%
02:00 -18°C° 0.1 mm 2 mps 448 mmHg 98%
03:00 -19°C° 0 mm 2 mps 447 mmHg 98%
04:00 -20°C° 0 mm 2 mps 447 mmHg 98%
05:00 -21°C° 0 mm 2 mps 446 mmHg 98%
06:00 -20°C° 0 mm 2 mps 446 mmHg 96%
07:00 -20°C° 0 mm 2 mps 447 mmHg 95%
08:00 -20°C° 0 mm 2 mps 448 mmHg 93%
09:00 -19°C° 0 mm 3 mps 448 mmHg 89%
10:00 -17°C° 0 mm 3 mps 449 mmHg 84%
11:00 -15°C° 0 mm 3 mps 450 mmHg 80%
12:00 -14°C° 0 mm 3 mps 450 mmHg 78%
13:00 -13°C° 0 mm 3 mps 450 mmHg 76%
14:00 -14°C° 0 mm 4 mps 449 mmHg 74%
15:00 -14°C° 0 mm 3 mps 449 mmHg 76%
16:00 -15°C° 0 mm 3 mps 448 mmHg 79%
17:00 -14°C° 0 mm 2 mps 448 mmHg 81%
18:00 -16°C° 0 mm 2 mps 447 mmHg 81%
19:00 -18°C° 0 mm 2 mps 447 mmHg 81%
20:00 -19°C° 0 mm 2 mps 447 mmHg 81%
21:00 -22°C° 0 mm 3 mps 447 mmHg 83%
22:00 -23°C° 0 mm 3 mps 447 mmHg 86%
23:00 -23°C° 0 mm 3 mps 447 mmHg 89%

5 March, Friday

Time Temperature Precipitation Wind Pressure Humidity
00:00 -24°C° 0 mm 3 mps 447 mmHg 88%
01:00 -23°C° 0 mm 2 mps 446 mmHg 88%
02:00 -23°C° 0 mm 2 mps 446 mmHg 87%
03:00 -23°C° 0 mm 2 mps 447 mmHg 87%
04:00 -24°C° 0 mm 3 mps 447 mmHg 87%
05:00 -24°C° 0 mm 3 mps 447 mmHg 87%
06:00 -23°C° 0 mm 2 mps 448 mmHg 88%
07:00 -21°C° 0 mm 2 mps 448 mmHg 88%
08:00 -21°C° 0 mm 2 mps 449 mmHg 89%
09:00 -19°C° 0 mm 2 mps 450 mmHg 85%
10:00 -17°C° 0 mm 2 mps 450 mmHg 81%
11:00 -16°C° 0 mm 3 mps 451 mmHg 77%
12:00 -15°C° 0 mm 3 mps 451 mmHg 73%
13:00 -14°C° 0 mm 3 mps 451 mmHg 70%
14:00 -14°C° 0 mm 4 mps 451 mmHg 66%
15:00 -14°C° 0 mm 3 mps 451 mmHg 69%
16:00 -15°C° 0 mm 3 mps 450 mmHg 72%
17:00 -15°C° 0 mm 2 mps 449 mmHg 74%
18:00 -17°C° 0 mm 2 mps 448 mmHg 76%
19:00 -19°C° 0 mm 2 mps 448 mmHg 77%
20:00 -21°C° 0 mm 2 mps 447 mmHg 79%
21:00 -23°C° 0 mm 2 mps 447 mmHg 80%
22:00 -24°C° 0 mm 2 mps 447 mmHg 82%
23:00 -25°C° 0 mm 2 mps 447 mmHg 83%

6 March, Saturday

Time Temperature Precipitation Wind Pressure Humidity
00:00 -25°C° 0 mm 2 mps 446 mmHg 84%
01:00 -26°C° 0 mm 2 mps 446 mmHg 84%
02:00 -23°C° 0 mm 1 mps 446 mmHg 85%
03:00 -23°C° 0 mm 1 mps 445 mmHg 83%
04:00 -23°C° 0 mm 1 mps 445 mmHg 80%
05:00 -23°C° 0 mm 1 mps 445 mmHg 78%
06:00 -22°C° 0 mm 1 mps 446 mmHg 75%
07:00 -21°C° 0 mm 1 mps 447 mmHg 73%
08:00 -19°C° 0 mm 1 mps 448 mmHg 70%
09:00 -17°C° 0 mm 1 mps 448 mmHg 65%
10:00 -15°C° 0 mm 1 mps 448 mmHg 61%
11:00 -15°C° 0 mm 2 mps 449 mmHg 56%
12:00 -14°C° 0 mm 2 mps 449 mmHg 57%
13:00 -13°C° 0 mm 2 mps 449 mmHg 58%
14:00 -12°C° 0 mm 2 mps 449 mmHg 60%
15:00 -12°C° 0 mm 2 mps 449 mmHg 65%
16:00 -12°C° 0 mm 2 mps 448 mmHg 70%
17:00 -11°C° 0 mm 1 mps 448 mmHg 75%
18:00 -14°C° 0 mm 2 mps 447 mmHg 78%
19:00 -15°C° 0 mm 2 mps 447 mmHg 81%
20:00 -17°C° 0 mm 2 mps 446 mmHg 84%
21:00 -17°C° 0 mm 2 mps 446 mmHg 85%
22:00 -17°C° 0 mm 2 mps 446 mmHg 86%
23:00 -18°C° 0 mm 2 mps 446 mmHg 86%

7 March, Sunday

Time Temperature Precipitation Wind Pressure Humidity
00:00 -18°C° 0 mm 2 mps 445 mmHg 87%
01:00 -19°C° 0 mm 2 mps 444 mmHg 88%
02:00 -20°C° 0 mm 2 mps 444 mmHg 88%
03:00 -18°C° 0 mm 1 mps 443 mmHg 89%
04:00 -18°C° 0 mm 1 mps 443 mmHg 90%
05:00 -18°C° 0 mm 1 mps 443 mmHg 90%
06:00 -17°C° 0 mm 1 mps 444 mmHg 91%
07:00 -16°C° 0 mm 1 mps 444 mmHg 91%
08:00 -16°C° 0 mm 1 mps 445 mmHg 92%
09:00 -14°C° 0 mm 1 mps 445 mmHg 88%
10:00 -13°C° 0 mm 1 mps 446 mmHg 84%
11:00 -11°C° 0 mm 1 mps 446 mmHg 80%
12:00 -10°C° 0 mm 1 mps 446 mmHg 80%
13:00 -9°C° 0 mm 1 mps 446 mmHg 80%
14:00 -9°C° 0 mm 2 mps 447 mmHg 80%
15:00 -9°C° 0.1 mm 1 mps 446 mmHg 83%
16:00 -10°C° 0.1 mm 1 mps 446 mmHg 86%
17:00 -10°C° 0.1 mm 1 mps 446 mmHg 89%
18:00 -11°C° 0.1 mm 1 mps 446 mmHg 90%
19:00 -12°C° 0.1 mm 1 mps 446 mmHg 91%
20:00 -13°C° 0.1 mm 1 mps 446 mmHg 93%
21:00 -14°C° 0.1 mm 1 mps 446 mmHg 94%
22:00 -14°C° 0.1 mm 1 mps 446 mmHg 95%
23:00 -15°C° 0.1 mm 1 mps 446 mmHg 96%
Show more